Year,Month,Day,Hour,Minute,Value (Times are PST for temperature in C)
2017,02,12,00,00,2.00
2017,02,12,00,01,2.00
2017,02,12,00,02,2.10
2017,02,12,00,03,2.00
2017,02,12,00,04,2.00
2017,02,12,00,05,2.00
2017,02,12,00,06,2.00
2017,02,12,00,07,1.90
2017,02,12,00,08,1.90
2017,02,12,00,09,2.00
2017,02,12,00,10,2.00
2017,02,12,00,11,2.00
2017,02,12,00,12,2.00
2017,02,12,00,13,2.00
2017,02,12,00,14,2.00
2017,02,12,00,15,2.00
2017,02,12,00,16,1.90
2017,02,12,00,17,1.90
2017,02,12,00,18,1.90
2017,02,12,00,19,1.80
2017,02,12,00,20,1.70
2017,02,12,00,21,1.60
2017,02,12,00,22,1.60
2017,02,12,00,23,1.50
2017,02,12,00,24,1.50
2017,02,12,00,25,1.40
2017,02,12,00,26,1.40
2017,02,12,00,27,1.50
2017,02,12,00,28,1.60
2017,02,12,00,29,1.70
2017,02,12,00,30,1.80
2017,02,12,00,31,1.90
2017,02,12,00,32,1.90
2017,02,12,00,33,1.90
2017,02,12,00,34,1.90
2017,02,12,00,35,2.00
2017,02,12,00,36,2.00
2017,02,12,00,37,2.00
2017,02,12,00,38,1.90
2017,02,12,00,39,1.90
2017,02,12,00,40,1.90
2017,02,12,00,41,1.80
2017,02,12,00,42,1.80
2017,02,12,00,43,1.70
2017,02,12,00,44,1.70
2017,02,12,00,45,1.60
2017,02,12,00,46,1.60
2017,02,12,00,47,1.60
2017,02,12,00,48,1.60
2017,02,12,00,49,1.60
2017,02,12,00,50,1.60
2017,02,12,00,51,1.60
2017,02,12,00,52,1.60
2017,02,12,00,53,1.70
2017,02,12,00,54,1.70
2017,02,12,00,55,1.70
2017,02,12,00,56,1.70
2017,02,12,00,57,1.70
2017,02,12,00,58,1.70
2017,02,12,00,59,1.70
2017,02,12,01,00,1.70
2017,02,12,01,01,1.80
2017,02,12,01,02,1.80
2017,02,12,01,03,1.80
2017,02,12,01,04,1.90
2017,02,12,01,05,1.90
2017,02,12,01,06,1.90
2017,02,12,01,07,2.00
2017,02,12,01,08,2.00
2017,02,12,01,09,2.00
2017,02,12,01,10,2.00
2017,02,12,01,11,2.00
2017,02,12,01,12,2.10
2017,02,12,01,13,2.10
2017,02,12,01,14,2.10
2017,02,12,01,15,2.10
2017,02,12,01,16,2.10
2017,02,12,01,17,2.10
2017,02,12,01,18,2.10
2017,02,12,01,19,2.10
2017,02,12,01,20,2.10
2017,02,12,01,21,2.00
2017,02,12,01,22,2.00
2017,02,12,01,23,2.00
2017,02,12,01,24,1.90
2017,02,12,01,25,1.90
2017,02,12,01,26,1.90
2017,02,12,01,27,1.90
2017,02,12,01,28,1.90
2017,02,12,01,29,1.80
2017,02,12,01,30,1.80
2017,02,12,01,31,1.70
2017,02,12,01,32,1.70
2017,02,12,01,33,1.70
2017,02,12,01,34,1.70
2017,02,12,01,35,1.70
2017,02,12,01,36,1.70
2017,02,12,01,37,1.70
2017,02,12,01,38,1.80
2017,02,12,01,39,1.80
2017,02,12,01,40,1.80
2017,02,12,01,41,1.90
2017,02,12,01,42,1.90
2017,02,12,01,43,1.90
2017,02,12,01,44,1.90
2017,02,12,01,45,2.00
2017,02,12,01,46,2.00
2017,02,12,01,47,2.10
2017,02,12,01,48,2.20
2017,02,12,01,49,2.20
2017,02,12,01,50,2.20
2017,02,12,01,51,2.20
2017,02,12,01,52,2.20
2017,02,12,01,53,2.20
2017,02,12,01,54,2.20
2017,02,12,01,55,2.30
2017,02,12,01,56,2.30
2017,02,12,01,57,2.30
2017,02,12,01,58,2.30
2017,02,12,01,59,2.30
2017,02,12,02,00,2.20
2017,02,12,02,01,2.20
2017,02,12,02,02,2.20
2017,02,12,02,03,2.20
2017,02,12,02,04,2.30
2017,02,12,02,05,2.20
2017,02,12,02,06,2.20
2017,02,12,02,07,2.20
2017,02,12,02,08,2.20
2017,02,12,02,09,2.20
2017,02,12,02,10,2.20
2017,02,12,02,11,2.20
2017,02,12,02,12,2.20
2017,02,12,02,13,2.10
2017,02,12,02,14,2.10
2017,02,12,02,15,2.10
2017,02,12,02,16,2.10
2017,02,12,02,17,2.10
2017,02,12,02,18,2.10
2017,02,12,02,19,2.00
2017,02,12,02,20,2.00
2017,02,12,02,21,2.00
2017,02,12,02,22,2.00
2017,02,12,02,23,2.00
2017,02,12,02,24,2.10
2017,02,12,02,25,2.10
2017,02,12,02,26,2.10
2017,02,12,02,27,2.10
2017,02,12,02,28,2.10
2017,02,12,02,29,2.10
2017,02,12,02,30,2.10
2017,02,12,02,31,2.10
2017,02,12,02,32,2.10
2017,02,12,02,33,2.10
2017,02,12,02,34,2.00
2017,02,12,02,35,2.00
2017,02,12,02,36,2.00
2017,02,12,02,37,2.00
2017,02,12,02,38,2.00
2017,02,12,02,39,2.00
2017,02,12,02,40,2.00
2017,02,12,02,41,2.10
2017,02,12,02,42,2.10
2017,02,12,02,43,2.10
2017,02,12,02,44,2.10
2017,02,12,02,45,2.10
2017,02,12,02,46,2.10
2017,02,12,02,47,2.00
2017,02,12,02,48,2.00
2017,02,12,02,49,2.00
2017,02,12,02,50,2.00
2017,02,12,02,51,2.00
2017,02,12,02,52,1.90
2017,02,12,02,53,1.90
2017,02,12,02,54,1.90
2017,02,12,02,55,1.90
2017,02,12,02,56,1.90
2017,02,12,02,57,1.90
2017,02,12,02,58,1.90
2017,02,12,02,59,1.90
2017,02,12,03,00,1.90
2017,02,12,03,01,1.90
2017,02,12,03,02,1.90
2017,02,12,03,03,1.90
2017,02,12,03,04,2.00
2017,02,12,03,05,2.00
2017,02,12,03,06,2.00
2017,02,12,03,07,2.00
2017,02,12,03,08,2.00
2017,02,12,03,09,2.00
2017,02,12,03,10,2.00
2017,02,12,03,11,2.00
2017,02,12,03,12,2.00
2017,02,12,03,13,2.00
2017,02,12,03,14,1.90
2017,02,12,03,15,1.90
2017,02,12,03,16,1.90
2017,02,12,03,17,1.90
2017,02,12,03,18,1.90
2017,02,12,03,19,1.90
2017,02,12,03,20,1.90
2017,02,12,03,21,1.90
2017,02,12,03,22,1.90
2017,02,12,03,23,1.90
2017,02,12,03,24,1.80
2017,02,12,03,25,1.80
2017,02,12,03,26,1.80
2017,02,12,03,27,1.80
2017,02,12,03,28,1.80
2017,02,12,03,29,1.80
2017,02,12,03,30,1.80
2017,02,12,03,31,1.70
2017,02,12,03,32,1.70
2017,02,12,03,33,1.70
2017,02,12,03,34,1.70
2017,02,12,03,35,1.60
2017,02,12,03,36,1.60
2017,02,12,03,37,1.60
2017,02,12,03,38,1.60
2017,02,12,03,39,1.60
2017,02,12,03,40,1.60
2017,02,12,03,41,1.70
2017,02,12,03,42,1.70
2017,02,12,03,43,1.80
2017,02,12,03,44,1.80
2017,02,12,03,45,1.90
2017,02,12,03,46,1.90
2017,02,12,03,47,1.90
2017,02,12,03,48,1.90
2017,02,12,03,49,1.90
2017,02,12,03,50,1.90
2017,02,12,03,51,1.90
2017,02,12,03,52,1.90
2017,02,12,03,53,1.90
2017,02,12,03,54,1.90
2017,02,12,03,55,1.90
2017,02,12,03,56,1.90
2017,02,12,03,57,1.80
2017,02,12,03,58,1.80
2017,02,12,03,59,1.70
2017,02,12,04,00,1.70
2017,02,12,04,01,1.70
2017,02,12,04,02,1.70
2017,02,12,04,03,1.70
2017,02,12,04,04,1.80
2017,02,12,04,05,1.80
2017,02,12,04,06,1.80
2017,02,12,04,07,1.80
2017,02,12,04,08,1.80
2017,02,12,04,09,1.80
2017,02,12,04,10,1.80
2017,02,12,04,11,1.70
2017,02,12,04,12,1.70
2017,02,12,04,13,1.70
2017,02,12,04,14,1.70
2017,02,12,04,15,1.70
2017,02,12,04,16,1.70
2017,02,12,04,17,1.70
2017,02,12,04,18,1.70
2017,02,12,04,19,1.70
2017,02,12,04,20,1.80
2017,02,12,04,21,1.80
2017,02,12,04,22,1.80
2017,02,12,04,23,1.80
2017,02,12,04,24,1.80
2017,02,12,04,25,1.80
2017,02,12,04,26,1.80
2017,02,12,04,27,1.70
2017,02,12,04,28,1.70
2017,02,12,04,29,1.70
2017,02,12,04,30,1.60
2017,02,12,04,31,1.60
2017,02,12,04,32,1.60
2017,02,12,04,33,1.60
2017,02,12,04,34,1.60
2017,02,12,04,35,1.60
2017,02,12,04,36,1.60
2017,02,12,04,37,1.60
2017,02,12,04,38,1.60
2017,02,12,04,39,1.60
2017,02,12,04,40,1.60
2017,02,12,04,41,1.60
2017,02,12,04,42,1.60
2017,02,12,04,43,1.60
2017,02,12,04,44,1.50
2017,02,12,04,45,1.50
2017,02,12,04,46,1.50
2017,02,12,04,47,1.50
2017,02,12,04,48,1.50
2017,02,12,04,49,1.50
2017,02,12,04,50,1.60
2017,02,12,04,51,1.60
2017,02,12,04,52,1.60
2017,02,12,04,53,1.60
2017,02,12,04,54,1.60
2017,02,12,04,55,1.60
2017,02,12,04,56,1.50
2017,02,12,04,57,1.50
2017,02,12,04,58,1.40
2017,02,12,04,59,1.30
2017,02,12,05,00,1.30
2017,02,12,05,01,1.30
2017,02,12,05,02,1.20
2017,02,12,05,03,1.20
2017,02,12,05,04,1.20
2017,02,12,05,05,1.20
2017,02,12,05,06,1.20
2017,02,12,05,07,1.20
2017,02,12,05,08,1.30
2017,02,12,05,09,1.30
2017,02,12,05,10,1.30
2017,02,12,05,11,1.30
2017,02,12,05,12,1.30
2017,02,12,05,13,1.30
2017,02,12,05,14,1.30
2017,02,12,05,15,1.30
2017,02,12,05,16,1.30
2017,02,12,05,17,1.30
2017,02,12,05,18,1.30
2017,02,12,05,19,1.30
2017,02,12,05,20,1.30
2017,02,12,05,21,1.30
2017,02,12,05,22,1.30
2017,02,12,05,23,1.30
2017,02,12,05,24,1.30
2017,02,12,05,25,1.20
2017,02,12,05,26,1.20
2017,02,12,05,27,1.20
2017,02,12,05,28,1.20
2017,02,12,05,29,1.20
2017,02,12,05,30,1.20
2017,02,12,05,31,1.10
2017,02,12,05,32,1.10
2017,02,12,05,33,1.10
2017,02,12,05,34,1.10
2017,02,12,05,35,1.00
2017,02,12,05,36,1.00
2017,02,12,05,37,0.90
2017,02,12,05,38,0.90
2017,02,12,05,39,0.80
2017,02,12,05,40,0.80
2017,02,12,05,41,0.70
2017,02,12,05,42,0.70
2017,02,12,05,43,0.70
2017,02,12,05,44,0.70
2017,02,12,05,45,0.70
2017,02,12,05,46,0.80
2017,02,12,05,47,0.80
2017,02,12,05,48,0.80
2017,02,12,05,49,0.80
2017,02,12,05,50,0.90
2017,02,12,05,51,0.90
2017,02,12,05,52,0.90
2017,02,12,05,53,0.90
2017,02,12,05,54,0.90
2017,02,12,05,55,0.90
2017,02,12,05,56,0.90
2017,02,12,05,57,0.90
2017,02,12,05,58,0.90
2017,02,12,05,59,1.00
2017,02,12,06,00,1.00
2017,02,12,06,01,1.10
2017,02,12,06,02,1.10
2017,02,12,06,03,1.10
2017,02,12,06,04,1.10
2017,02,12,06,05,1.10
2017,02,12,06,06,1.10
2017,02,12,06,07,1.10
2017,02,12,06,08,1.20
2017,02,12,06,09,1.20
2017,02,12,06,10,1.20
2017,02,12,06,11,1.20
2017,02,12,06,12,1.20
2017,02,12,06,13,1.30
2017,02,12,06,14,1.30
2017,02,12,06,15,1.30
2017,02,12,06,16,1.40
2017,02,12,06,17,1.40
2017,02,12,06,18,1.40
2017,02,12,06,19,1.40
2017,02,12,06,20,1.40
2017,02,12,06,21,1.40
2017,02,12,06,22,1.40
2017,02,12,06,23,1.40
2017,02,12,06,24,1.30
2017,02,12,06,25,1.30
2017,02,12,06,26,1.30
2017,02,12,06,27,1.40
2017,02,12,06,28,1.40
2017,02,12,06,29,1.40
2017,02,12,06,30,1.40
2017,02,12,06,31,1.40
2017,02,12,06,32,1.40
2017,02,12,06,33,1.40
2017,02,12,06,34,1.40
2017,02,12,06,35,1.40
2017,02,12,06,36,1.30
2017,02,12,06,37,1.30
2017,02,12,06,38,1.30
2017,02,12,06,39,1.30
2017,02,12,06,40,1.30
2017,02,12,06,41,1.30
2017,02,12,06,42,1.30
2017,02,12,06,43,1.30
2017,02,12,06,44,1.30
2017,02,12,06,45,1.20
2017,02,12,06,46,1.20
2017,02,12,06,47,1.20
2017,02,12,06,48,1.20
2017,02,12,06,49,1.20
2017,02,12,06,50,1.20
2017,02,12,06,51,1.20
2017,02,12,06,52,1.20
2017,02,12,06,53,1.20
2017,02,12,06,54,1.20
2017,02,12,06,55,1.10
2017,02,12,06,56,1.20
2017,02,12,06,57,1.20
2017,02,12,06,58,1.20
2017,02,12,06,59,1.20
2017,02,12,07,00,1.20
2017,02,12,07,01,1.20
2017,02,12,07,02,1.30
2017,02,12,07,03,1.20
2017,02,12,07,04,1.20
2017,02,12,07,05,1.20
2017,02,12,07,06,1.20
2017,02,12,07,07,1.20
2017,02,12,07,08,1.20
2017,02,12,07,09,1.20
2017,02,12,07,10,1.20
2017,02,12,07,11,1.20
2017,02,12,07,12,1.20
2017,02,12,07,13,1.20
2017,02,12,07,14,1.20
2017,02,12,07,15,1.20
2017,02,12,07,16,1.20
2017,02,12,07,17,1.20
2017,02,12,07,18,1.20
2017,02,12,07,19,1.20
2017,02,12,07,20,1.20
2017,02,12,07,21,1.20
2017,02,12,07,22,1.20
2017,02,12,07,23,1.20
2017,02,12,07,24,1.20
2017,02,12,07,25,1.20
2017,02,12,07,26,1.20
2017,02,12,07,27,1.20
2017,02,12,07,28,1.30
2017,02,12,07,29,1.30
2017,02,12,07,30,1.30
2017,02,12,07,31,1.30
2017,02,12,07,32,1.30
2017,02,12,07,33,1.30
2017,02,12,07,34,1.30
2017,02,12,07,35,1.30
2017,02,12,07,36,1.30
2017,02,12,07,37,1.40
2017,02,12,07,38,1.40
2017,02,12,07,39,1.40
2017,02,12,07,40,1.40
2017,02,12,07,41,1.40
2017,02,12,07,42,1.30
2017,02,12,07,43,1.30
2017,02,12,07,44,1.30
2017,02,12,07,45,1.30
2017,02,12,07,46,1.30
2017,02,12,07,47,1.30
2017,02,12,07,48,1.30
2017,02,12,07,49,1.30
2017,02,12,07,50,1.30
2017,02,12,07,51,1.30
2017,02,12,07,52,1.30
2017,02,12,07,53,1.30
2017,02,12,07,54,1.30
2017,02,12,07,55,1.30
2017,02,12,07,56,1.30
2017,02,12,07,57,1.40
2017,02,12,07,58,1.40
2017,02,12,07,59,1.40
2017,02,12,08,00,1.40
2017,02,12,08,01,1.40
2017,02,12,08,02,1.30
2017,02,12,08,03,1.30
2017,02,12,08,04,1.30
2017,02,12,08,05,1.30
2017,02,12,08,06,1.30
2017,02,12,08,07,1.30
2017,02,12,08,08,1.30
2017,02,12,08,09,1.30
2017,02,12,08,10,1.40
2017,02,12,08,11,1.40
2017,02,12,08,12,1.40
2017,02,12,08,13,1.40
2017,02,12,08,14,1.40
2017,02,12,08,15,1.40
2017,02,12,08,16,1.40
2017,02,12,08,17,1.40
2017,02,12,08,18,1.50
2017,02,12,08,19,1.50
2017,02,12,08,20,1.50
2017,02,12,08,21,1.50
2017,02,12,08,22,1.50
2017,02,12,08,23,1.60
2017,02,12,08,24,1.50
2017,02,12,08,25,1.60
2017,02,12,08,26,1.60
2017,02,12,08,27,1.50
2017,02,12,08,28,1.50
2017,02,12,08,29,1.50
2017,02,12,08,30,1.50
2017,02,12,08,31,1.50
2017,02,12,08,32,1.50
2017,02,12,08,33,1.60
2017,02,12,08,34,1.60
2017,02,12,08,35,1.60
2017,02,12,08,36,1.60
2017,02,12,08,37,1.70
2017,02,12,08,38,1.70
2017,02,12,08,39,1.70
2017,02,12,08,40,1.70
2017,02,12,08,41,1.70
2017,02,12,08,42,1.70
2017,02,12,08,43,1.70
2017,02,12,08,44,1.70
2017,02,12,08,45,1.70
2017,02,12,08,46,1.70
2017,02,12,08,47,1.70
2017,02,12,08,48,1.80
2017,02,12,08,49,1.80
2017,02,12,08,50,1.80
2017,02,12,08,51,1.80
2017,02,12,08,52,1.80
2017,02,12,08,53,1.80
2017,02,12,08,54,1.80
2017,02,12,08,55,1.90
2017,02,12,08,56,1.90
2017,02,12,08,57,1.90
2017,02,12,08,58,1.90
2017,02,12,08,59,1.90
2017,02,12,09,00,1.90
2017,02,12,09,01,2.00
2017,02,12,09,02,2.00
2017,02,12,09,03,2.00
2017,02,12,09,04,2.00
2017,02,12,09,05,2.10
2017,02,12,09,06,2.10
2017,02,12,09,07,2.10
2017,02,12,09,08,2.10
2017,02,12,09,09,2.20
2017,02,12,09,10,2.20
2017,02,12,09,11,2.20
2017,02,12,09,12,2.20
2017,02,12,09,13,2.20
2017,02,12,09,14,2.20
2017,02,12,09,15,2.20
2017,02,12,09,16,2.20
2017,02,12,09,17,2.20
2017,02,12,09,18,2.30
2017,02,12,09,19,2.30
2017,02,12,09,20,2.30
2017,02,12,09,21,2.30
2017,02,12,09,22,2.30
2017,02,12,09,23,2.30
2017,02,12,09,24,2.30
2017,02,12,09,25,2.30
2017,02,12,09,26,2.30
2017,02,12,09,27,2.30
2017,02,12,09,28,2.30
2017,02,12,09,29,2.30
2017,02,12,09,30,2.30
2017,02,12,09,31,2.30
2017,02,12,09,32,2.30
2017,02,12,09,33,2.30
2017,02,12,09,34,2.30
2017,02,12,09,35,2.30
2017,02,12,09,36,2.30
2017,02,12,09,37,2.40
2017,02,12,09,38,2.40
2017,02,12,09,39,2.40
2017,02,12,09,40,2.40
2017,02,12,09,41,2.50
2017,02,12,09,42,2.50
2017,02,12,09,43,2.50
2017,02,12,09,44,2.60
2017,02,12,09,45,2.60
2017,02,12,09,46,2.60
2017,02,12,09,47,2.60
2017,02,12,09,48,2.60
2017,02,12,09,49,2.60
2017,02,12,09,50,2.60
2017,02,12,09,51,2.60
2017,02,12,09,52,2.60
2017,02,12,09,53,2.60
2017,02,12,09,54,2.60
2017,02,12,09,55,2.60
2017,02,12,09,56,2.60
2017,02,12,09,57,2.60
2017,02,12,09,58,2.60
2017,02,12,09,59,2.60
2017,02,12,10,00,2.60
2017,02,12,10,01,2.60
2017,02,12,10,02,2.60
2017,02,12,10,03,2.60
2017,02,12,10,04,2.60
2017,02,12,10,05,2.60
2017,02,12,10,06,2.60
2017,02,12,10,07,2.60
2017,02,12,10,08,2.60
2017,02,12,10,09,2.60
2017,02,12,10,10,2.60
2017,02,12,10,11,2.60
2017,02,12,10,12,2.70
2017,02,12,10,13,2.70
2017,02,12,10,14,2.70
2017,02,12,10,15,2.70
2017,02,12,10,16,2.70
2017,02,12,10,17,2.70
2017,02,12,10,18,2.70
2017,02,12,10,19,2.80
2017,02,12,10,20,2.80
2017,02,12,10,21,2.80
2017,02,12,10,22,2.80
2017,02,12,10,23,2.90
2017,02,12,10,24,2.90
2017,02,12,10,25,2.90
2017,02,12,10,26,2.90
2017,02,12,10,27,3.00
2017,02,12,10,28,3.10
2017,02,12,10,29,3.10
2017,02,12,10,30,3.20
2017,02,12,10,31,3.20
2017,02,12,10,32,3.30
2017,02,12,10,33,3.30
2017,02,12,10,34,3.40
2017,02,12,10,35,3.40
2017,02,12,10,36,3.40
2017,02,12,10,37,3.50
2017,02,12,10,38,3.50
2017,02,12,10,39,3.60
2017,02,12,10,40,3.60
2017,02,12,10,41,3.60
2017,02,12,10,42,3.70
2017,02,12,10,43,3.70
2017,02,12,10,44,3.70
2017,02,12,10,45,3.70
2017,02,12,10,46,3.70
2017,02,12,10,47,3.80
2017,02,12,10,48,3.80
2017,02,12,10,49,3.90
2017,02,12,10,50,3.90
2017,02,12,10,51,4.00
2017,02,12,10,52,4.00
2017,02,12,10,53,4.10
2017,02,12,10,54,4.10
2017,02,12,10,55,4.20
2017,02,12,10,56,4.20
2017,02,12,10,57,4.30
2017,02,12,10,58,4.40
2017,02,12,10,59,4.50
2017,02,12,11,00,4.60
2017,02,12,11,01,4.60
2017,02,12,11,02,4.70
2017,02,12,11,03,4.70
2017,02,12,11,04,4.70
2017,02,12,11,05,4.80
2017,02,12,11,06,4.80
2017,02,12,11,07,4.80
2017,02,12,11,08,4.90
2017,02,12,11,09,4.90
2017,02,12,11,10,4.90
2017,02,12,11,11,4.90
2017,02,12,11,12,4.90
2017,02,12,11,13,4.90
2017,02,12,11,14,5.00
2017,02,12,11,15,5.00
2017,02,12,11,16,5.10
2017,02,12,11,17,5.10
2017,02,12,11,18,5.10
2017,02,12,11,19,5.10
2017,02,12,11,20,5.10
2017,02,12,11,21,5.10
2017,02,12,11,22,5.10
2017,02,12,11,23,5.20
2017,02,12,11,24,5.20
2017,02,12,11,25,5.20
2017,02,12,11,26,5.30
2017,02,12,11,27,5.30
2017,02,12,11,28,5.30
2017,02,12,11,29,5.40
2017,02,12,11,30,5.40
2017,02,12,11,31,5.40
2017,02,12,11,32,5.40
2017,02,12,11,33,5.50
2017,02,12,11,34,5.50
2017,02,12,11,35,5.60
2017,02,12,11,36,5.60
2017,02,12,11,37,5.60
2017,02,12,11,38,5.60
2017,02,12,11,39,5.60
2017,02,12,11,40,5.60
2017,02,12,11,41,5.70
2017,02,12,11,42,5.70
2017,02,12,11,43,5.80
2017,02,12,11,44,5.90
2017,02,12,11,45,6.00
2017,02,12,11,46,6.00
2017,02,12,11,47,6.10
2017,02,12,11,48,6.10
2017,02,12,11,49,6.10
2017,02,12,11,50,6.20
2017,02,12,11,51,6.20
2017,02,12,11,52,6.20
2017,02,12,11,53,6.20
2017,02,12,11,54,6.20
2017,02,12,11,55,6.30
2017,02,12,11,56,6.30
2017,02,12,11,57,6.30
2017,02,12,11,58,6.30
2017,02,12,11,59,6.30
2017,02,12,12,00,6.30
2017,02,12,12,01,6.30
2017,02,12,12,02,6.30
2017,02,12,12,03,6.40
2017,02,12,12,04,6.40
2017,02,12,12,05,6.50
2017,02,12,12,06,6.60
2017,02,12,12,07,6.60
2017,02,12,12,08,6.60
2017,02,12,12,09,6.60
2017,02,12,12,10,6.60
2017,02,12,12,11,6.60
2017,02,12,12,12,6.50
2017,02,12,12,13,6.50
2017,02,12,12,14,6.50
2017,02,12,12,15,6.50
2017,02,12,12,16,6.60
2017,02,12,12,17,6.60
2017,02,12,12,18,6.50
2017,02,12,12,19,6.50
2017,02,12,12,20,6.40
2017,02,12,12,21,6.40
2017,02,12,12,22,6.40
2017,02,12,12,23,6.30
2017,02,12,12,24,6.30
2017,02,12,12,25,6.30
2017,02,12,12,26,6.30
2017,02,12,12,27,6.30
2017,02,12,12,28,6.30
2017,02,12,12,29,6.30
2017,02,12,12,30,6.20
2017,02,12,12,31,6.20
2017,02,12,12,32,6.20
2017,02,12,12,33,6.20
2017,02,12,12,34,6.30
2017,02,12,12,35,6.30
2017,02,12,12,36,6.30
2017,02,12,12,37,6.40
2017,02,12,12,38,6.50
2017,02,12,12,39,6.50
2017,02,12,12,40,6.60
2017,02,12,12,41,6.60
2017,02,12,12,42,6.60
2017,02,12,12,43,6.70
2017,02,12,12,44,6.70
2017,02,12,12,45,6.70
2017,02,12,12,46,6.70
2017,02,12,12,47,6.80
2017,02,12,12,48,6.80
2017,02,12,12,49,6.80
2017,02,12,12,50,6.80
2017,02,12,12,51,6.90
2017,02,12,12,52,6.80
2017,02,12,12,53,6.90
2017,02,12,12,54,6.90
2017,02,12,12,55,6.90
2017,02,12,12,56,7.00
2017,02,12,12,57,7.10
2017,02,12,12,58,7.20
2017,02,12,12,59,7.30
2017,02,12,13,00,7.50
2017,02,12,13,01,7.60
2017,02,12,13,02,7.70
2017,02,12,13,03,7.80
2017,02,12,13,04,7.80
2017,02,12,13,05,7.80
2017,02,12,13,06,7.90
2017,02,12,13,07,7.90
2017,02,12,13,08,8.00
2017,02,12,13,09,8.10
2017,02,12,13,10,8.10
2017,02,12,13,11,8.10
2017,02,12,13,12,8.20
2017,02,12,13,13,8.20
2017,02,12,13,14,8.20
2017,02,12,13,15,8.20
2017,02,12,13,16,8.20
2017,02,12,13,17,8.10
2017,02,12,13,18,8.10
2017,02,12,13,19,8.10
2017,02,12,13,20,8.10
2017,02,12,13,21,8.10
2017,02,12,13,22,8.10
2017,02,12,13,23,8.20
2017,02,12,13,24,8.20
2017,02,12,13,25,8.20
2017,02,12,13,26,8.20
2017,02,12,13,27,8.20
2017,02,12,13,28,8.30
2017,02,12,13,29,8.30
2017,02,12,13,30,8.30
2017,02,12,13,31,8.30
2017,02,12,13,32,8.30
2017,02,12,13,33,8.30
2017,02,12,13,34,8.30
2017,02,12,13,35,8.30
2017,02,12,13,36,8.30
2017,02,12,13,37,8.30
2017,02,12,13,38,8.30
2017,02,12,13,39,8.40
2017,02,12,13,40,8.40
2017,02,12,13,41,8.40
2017,02,12,13,42,8.40
2017,02,12,13,43,8.40
2017,02,12,13,44,8.40
2017,02,12,13,45,8.40
2017,02,12,13,46,8.50
2017,02,12,13,47,8.40
2017,02,12,13,48,8.30
2017,02,12,13,49,8.20
2017,02,12,13,50,8.10
2017,02,12,13,51,8.10
2017,02,12,13,52,8.10
2017,02,12,13,53,8.10
2017,02,12,13,54,8.10
2017,02,12,13,55,8.10
2017,02,12,13,56,8.10
2017,02,12,13,57,8.10
2017,02,12,13,58,8.10
2017,02,12,13,59,8.10
2017,02,12,14,00,8.00
2017,02,12,14,01,8.10
2017,02,12,14,02,8.10
2017,02,12,14,03,8.10
2017,02,12,14,04,8.10
2017,02,12,14,05,8.10
2017,02,12,14,06,8.10
2017,02,12,14,07,8.10
2017,02,12,14,08,8.10
2017,02,12,14,09,8.10
2017,02,12,14,10,8.10
2017,02,12,14,11,8.10
2017,02,12,14,12,8.10
2017,02,12,14,13,8.20
2017,02,12,14,14,8.10
2017,02,12,14,15,8.10
2017,02,12,14,16,8.10
2017,02,12,14,17,8.10
2017,02,12,14,18,8.00
2017,02,12,14,19,8.00
2017,02,12,14,20,8.00
2017,02,12,14,21,7.90
2017,02,12,14,22,8.00
2017,02,12,14,23,8.00
2017,02,12,14,24,8.00
2017,02,12,14,25,8.00
2017,02,12,14,26,8.00
2017,02,12,14,27,8.00
2017,02,12,14,28,8.00
2017,02,12,14,29,8.00
2017,02,12,14,30,8.00
2017,02,12,14,31,8.00
2017,02,12,14,32,8.00
2017,02,12,14,33,8.00
2017,02,12,14,34,8.10
2017,02,12,14,35,8.00
2017,02,12,14,36,8.00
2017,02,12,14,37,8.00
2017,02,12,14,38,8.10
2017,02,12,14,39,8.10
2017,02,12,14,40,8.10
2017,02,12,14,41,8.10
2017,02,12,14,42,8.10
2017,02,12,14,43,8.10
2017,02,12,14,44,8.10
2017,02,12,14,45,8.10
2017,02,12,14,46,8.10
2017,02,12,14,47,8.10
2017,02,12,14,48,8.10
2017,02,12,14,49,8.10
2017,02,12,14,50,8.10
2017,02,12,14,51,8.10
2017,02,12,14,52,8.10
2017,02,12,14,53,8.10
2017,02,12,14,54,8.10
2017,02,12,14,55,8.20
2017,02,12,14,56,8.20
2017,02,12,14,57,8.20
2017,02,12,14,58,8.20
2017,02,12,14,59,8.20
2017,02,12,15,00,8.20
2017,02,12,15,01,8.20
2017,02,12,15,02,8.20
2017,02,12,15,03,8.20
2017,02,12,15,04,8.20
2017,02,12,15,05,8.20
2017,02,12,15,06,8.20
2017,02,12,15,07,8.20
2017,02,12,15,08,8.20
2017,02,12,15,09,8.20
2017,02,12,15,10,8.20
2017,02,12,15,11,8.20
2017,02,12,15,12,8.20
2017,02,12,15,13,8.20
2017,02,12,15,14,8.20
2017,02,12,15,15,8.10
2017,02,12,15,16,8.10
2017,02,12,15,17,8.10
2017,02,12,15,18,8.10
2017,02,12,15,19,8.10
2017,02,12,15,20,8.00
2017,02,12,15,21,8.00
2017,02,12,15,22,7.90
2017,02,12,15,23,7.90
2017,02,12,15,24,7.90
2017,02,12,15,25,7.90
2017,02,12,15,26,7.90
2017,02,12,15,27,7.90
2017,02,12,15,28,7.90
2017,02,12,15,29,7.90
2017,02,12,15,30,7.90
2017,02,12,15,31,7.90
2017,02,12,15,32,7.90
2017,02,12,15,33,7.90
2017,02,12,15,34,7.90
2017,02,12,15,35,7.90
2017,02,12,15,36,7.90
2017,02,12,15,37,7.90
2017,02,12,15,38,7.90
2017,02,12,15,39,7.90
2017,02,12,15,40,7.90
2017,02,12,15,41,7.90
2017,02,12,15,42,7.90
2017,02,12,15,43,7.90
2017,02,12,15,44,7.80
2017,02,12,15,45,7.80
2017,02,12,15,46,7.70
2017,02,12,15,47,7.70
2017,02,12,15,48,7.70
2017,02,12,15,49,7.70
2017,02,12,15,50,7.70
2017,02,12,15,51,7.70
2017,02,12,15,52,7.70
2017,02,12,15,53,7.70
2017,02,12,15,54,7.80
2017,02,12,15,55,7.80
2017,02,12,15,56,7.80
2017,02,12,15,57,7.70
2017,02,12,15,58,7.70
2017,02,12,15,59,7.70
2017,02,12,16,00,7.70
2017,02,12,16,01,7.80
2017,02,12,16,02,7.80
2017,02,12,16,03,7.80
2017,02,12,16,04,7.80
2017,02,12,16,05,7.70
2017,02,12,16,06,7.70
2017,02,12,16,07,7.70
2017,02,12,16,08,7.70
2017,02,12,16,09,7.70
2017,02,12,16,10,7.70
2017,02,12,16,11,7.70
2017,02,12,16,12,7.70
2017,02,12,16,13,7.70
2017,02,12,16,14,7.70
2017,02,12,16,15,7.70
2017,02,12,16,16,7.70
2017,02,12,16,17,7.70
2017,02,12,16,18,7.70
2017,02,12,16,19,7.70
2017,02,12,16,20,7.70
2017,02,12,16,21,7.70
2017,02,12,16,22,7.70
2017,02,12,16,23,7.70
2017,02,12,16,24,7.80
2017,02,12,16,25,7.80
2017,02,12,16,26,7.80
2017,02,12,16,27,7.80
2017,02,12,16,28,7.80
2017,02,12,16,29,7.80
2017,02,12,16,30,7.80
2017,02,12,16,31,7.80
2017,02,12,16,32,7.80
2017,02,12,16,33,7.80
2017,02,12,16,34,7.80
2017,02,12,16,35,7.80
2017,02,12,16,36,7.80
2017,02,12,16,37,7.80
2017,02,12,16,38,7.80
2017,02,12,16,39,7.80
2017,02,12,16,40,7.80
2017,02,12,16,41,7.80
2017,02,12,16,42,7.80
2017,02,12,16,43,7.80
2017,02,12,16,44,7.80
2017,02,12,16,45,7.80
2017,02,12,16,46,7.80
2017,02,12,16,47,7.80
2017,02,12,16,48,7.80
2017,02,12,16,49,7.80
2017,02,12,16,50,7.80
2017,02,12,16,51,7.80
2017,02,12,16,52,7.80
2017,02,12,16,53,7.80
2017,02,12,16,54,7.70
2017,02,12,16,55,7.70
2017,02,12,16,56,7.70
2017,02,12,16,57,7.70
2017,02,12,16,58,7.70
2017,02,12,16,59,7.60
2017,02,12,17,00,7.60
2017,02,12,17,01,7.60
2017,02,12,17,02,7.60
2017,02,12,17,03,7.60
2017,02,12,17,04,7.60
2017,02,12,17,05,7.60
2017,02,12,17,06,7.60
2017,02,12,17,07,7.60
2017,02,12,17,08,7.60
2017,02,12,17,09,7.60
2017,02,12,17,10,7.50
2017,02,12,17,11,7.50
2017,02,12,17,12,7.50
2017,02,12,17,13,7.40
2017,02,12,17,14,7.40
2017,02,12,17,15,7.40
2017,02,12,17,16,7.40
2017,02,12,17,17,7.40
2017,02,12,17,18,7.30
2017,02,12,17,19,7.30
2017,02,12,17,20,7.30
2017,02,12,17,21,7.30
2017,02,12,17,22,7.30
2017,02,12,17,23,7.20
2017,02,12,17,24,7.20
2017,02,12,17,25,7.20
2017,02,12,17,26,7.20
2017,02,12,17,27,7.20
2017,02,12,17,28,7.10
2017,02,12,17,29,7.10
2017,02,12,17,30,7.10
2017,02,12,17,31,7.00
2017,02,12,17,32,7.00
2017,02,12,17,33,7.00
2017,02,12,17,34,6.90
2017,02,12,17,35,6.90
2017,02,12,17,36,6.90
2017,02,12,17,37,6.80
2017,02,12,17,38,6.80
2017,02,12,17,39,6.80
2017,02,12,17,40,6.80
2017,02,12,17,41,6.70
2017,02,12,17,42,6.70
2017,02,12,17,43,6.70
2017,02,12,17,44,6.60
2017,02,12,17,45,6.60
2017,02,12,17,46,6.60
2017,02,12,17,47,6.50
2017,02,12,17,48,6.50
2017,02,12,17,49,6.40
2017,02,12,17,50,6.40
2017,02,12,17,51,6.30
2017,02,12,17,52,6.30
2017,02,12,17,53,6.30
2017,02,12,17,54,6.20
2017,02,12,17,55,6.20
2017,02,12,17,56,6.10
2017,02,12,17,57,6.10
2017,02,12,17,58,6.00
2017,02,12,17,59,5.90
2017,02,12,18,00,5.90
2017,02,12,18,01,5.80
2017,02,12,18,02,5.80
2017,02,12,18,03,5.70
2017,02,12,18,04,5.60
2017,02,12,18,05,5.60
2017,02,12,18,06,5.50